TimeEST,TemperatureF,Dew PointF,Humidity,Sea Level PressureIn,VisibilityMPH,Wind Direction,Wind SpeedMPH,Gust SpeedMPH,PrecipitationIn,Events,Conditions,WindDirDegrees,DateUTC
12:53 AM,34.0,32.0,92,30.33,7.0,NNE,3.5,-,N/A,,Clear,30,2001-01-01 05:53:00
1:53 AM,30.0,28.0,92,30.33,7.0,East,4.6,-,N/A,,Clear,100,2001-01-01 06:53:00
2:53 AM,30.9,28.9,92,30.32,8.0,East,3.5,-,N/A,,Clear,90,2001-01-01 07:53:00
3:53 AM,32.0,30.0,92,30.31,10.0,East,3.5,-,N/A,,Clear,80,2001-01-01 08:53:00
4:53 AM,33.1,30.0,89,30.29,10.0,ENE,6.9,-,N/A,,Clear,60,2001-01-01 09:53:00
5:53 AM,33.1,28.9,85,30.32,10.0,NE,3.5,-,N/A,,Clear,50,2001-01-01 10:53:00
6:53 AM,33.1,30.9,92,30.35,10.0,NE,3.5,-,N/A,,Clear,50,2001-01-01 11:53:00
7:53 AM,33.1,30.0,89,30.37,9.0,NNE,4.6,-,N/A,,Clear,30,2001-01-01 12:53:00
8:53 AM,39.0,28.9,67,30.39,10.0,NE,9.2,-,N/A,,Clear,40,2001-01-01 13:53:00
9:53 AM,44.1,25.0,47,30.40,10.0,NE,10.4,-,N/A,,Clear,50,2001-01-01 14:53:00
10:53 AM,48.0,23.0,37,30.38,10.0,ENE,11.5,-,N/A,,Clear,70,2001-01-01 15:53:00
11:53 AM,52.0,23.0,32,30.36,10.0,NNE,6.9,-,N/A,,Clear,20,2001-01-01 16:53:00
12:53 PM,54.0,25.0,33,30.32,10.0,Variable,5.8,-,N/A,,Clear,0,2001-01-01 17:53:00
1:53 PM,55.9,25.0,30,30.30,10.0,North,4.6,-,N/A,,Clear,10,2001-01-01 18:53:00
2:53 PM,57.0,25.0,29,30.29,10.0,Variable,3.5,-,N/A,,Clear,0,2001-01-01 19:53:00
3:53 PM,57.0,35.1,44,30.28,10.0,Variable,5.8,-,N/A,,Clear,0,2001-01-01 20:53:00
4:53 PM,55.9,32.0,40,30.28,10.0,NNE,3.5,-,N/A,,Clear,20,2001-01-01 21:53:00
5:53 PM,51.1,37.0,59,30.29,10.0,North,6.9,-,N/A,,Clear,360,2001-01-01 22:53:00
6:53 PM,48.0,39.0,71,30.31,10.0,North,3.5,-,N/A,,Clear,360,2001-01-01 23:53:00
7:53 PM,46.9,41.0,80,30.32,10.0,North,3.5,-,N/A,,Clear,350,2001-01-02 00:53:00
8:53 PM,48.0,42.1,80,30.33,10.0,NNE,4.6,-,N/A,,Clear,20,2001-01-02 01:53:00
9:53 PM,46.9,42.1,83,30.34,10.0,NNE,6.9,-,N/A,,Clear,20,2001-01-02 02:53:00
10:53 PM,46.9,41.0,80,30.35,10.0,NNE,6.9,-,N/A,,Clear,20,2001-01-02 03:53:00
11:53 PM,45.0,41.0,86,30.34,10.0,NNE,5.8,-,N/A,,Clear,20,2001-01-02 04:53:00